Regional Weather Roundup
Issued by NWS

Home | Current Version | Previous Version | Text Only | Print | Product List | Glossary Off
Versions: 1 2 3 4 5 6 7 8 9 10 11 12 13 14 15 16 17 18 19 20 21 22 23 24 25 26 27 28 29 30 31 32 33 34 35 36 37 38 39 40 41 42 43 44 45 46 47 48 49 50

846
ASUS43 KIND 270309
RWRIN

WEATHER ROUNDUP FOR INDIANA
NATIONAL WEATHER SERVICE INDIANAPOLIS IN
1100 PM EDT SUN MAR 26 2017

NOTE: "FAIR" INDICATES FEW OR NO CLOUDS BELOW 12,000 FEET WITH NO
SIGNIFICANT WEATHER AND/OR OBSTRUCTIONS TO VISIBILITY.

* - STATION DOES NOT REPORT WEATHER SUCH AS PRECIPITATION OR FOG.

+ - STATION NOT QUALITY CONTROLLED BY THE NATIONAL WEATHER SERVICE.
    USE DATA WITH CAUTION...ESPECIALLY DEWPOINT AND RELATIVE
    HUMIDITY OBSERVATIONS.

INZ001>003-010>013-019-020-270400-
NORTHWEST INDIANA

CITY           SKY/WX    TMP DP  RH WIND       PRES   REMARKS
GARY /AIRPORT/ CLOUDY    55  50  82 SW12      29.90
KNOX *+        CLOUDY    52  41  66 SW8       29.90S
LA PORTE +     CLOUDY    53  51  93 SW7       29.90S
MICHIGAN CITY+ CLOUDY    54  52  94 SW7       29.89S
MONTICELLO +   CLOUDY    53  50  89 SW10      29.93R
RENSSELAER +   CLOUDY    52  50  93 SW13G18   29.93R
VALPARAISO     CLOUDY    54  52  93 SW12      29.90S

$$

LMZ046-743>745-270400-
SOUTHERN LAKE MICHIGAN

STATION/POSITION TIME  TEMP    WIND        PRES    WAVE
                       AIR SEA DIR/SP/G            HT
                 (UTC) (F)     (DEG/KT/KT) (MB)    (FT)
BURNS HARBOR     0240   54     230/  8/ 12 1012.5S
MICHIGAN CITY    0240   46     220/  8/  9   N/A

$$

INZ004-005-014>016-021>024-270400-
NORTH CENTRAL INDIANA

CITY           SKY/WX    TMP DP  RH WIND       PRES   REMARKS
GOSHEN         CLOUDY    53  50  89 S7        29.89S
LOGANSPORT +   CLOUDY    54  50  87 W14G20    29.94R
PERU/GRISSOM   DRIZZLE   54  54 100 W13       29.92R
ROCHESTER +    CLOUDY    57  54  88 W8        29.92R
SOUTH BEND     CLOUDY    51  51 100 SW6       29.89S
WARSAW +       PTCLDY    52  50  93 SW3       29.89F

$$

INZ006>009-017-018-025>027-270400-
NORTHEAST INDIANA

CITY           SKY/WX    TMP DP  RH WIND       PRES   REMARKS
ANGOLA *+      MOCLDY    52  46  82 S5        29.89S
AUBURN +       CLOUDY    52  50  93 CALM      29.90F
FORT WAYNE     CLOUDY    53  51  93 S6        29.91S
HUNTINGTON +   CLOUDY    54  53  95 SW5       29.92R
KENDALLVILLE + CLOUDY    52  52 100 SW5       29.90S

$$

INZ028-029-035-036-043>045-051>053-270400-
WEST CENTRAL INDIANA

CITY           SKY/WX    TMP DP  RH WIND       PRES   REMARKS
CRAWFORDSVL +  CLOUDY    53  50  90 SW7       29.95S
GREENCASTLE +  CLEAR     52  46  82 SW3       29.96S
LAFAYETTE      CLOUDY    54  51  90 SW6       29.94R
TERRE HAUTE    CLEAR     53  47  79 SW6       29.96R

$$

INZ030>032-037>040-046>048-054>057-064-065-270400-
CENTRAL INDIANA

CITY           SKY/WX    TMP DP  RH WIND       PRES   REMARKS
CP ATTERBURY + CLEAR     54  46  76 SW7       29.97S
FISHERS *+     CLOUDY    54  52  94 SW9       29.95R
FRANKFORT +    CLOUDY    55  53  91 W9        29.96R FOG
GREENWOOD *+   PTCLDY    57  49  74 W8G16     29.96S
INDIANAPOLIS   PTCLDY    54  48  80 SW9       29.95S
-EAGLE CREEK   PTCLDY    56  48  74 SW6       29.94S
KOKOMO +       LGT RAIN  54  51  90 SW12      29.94R
MARION +       CLOUDY    54  49  85 SW12      29.94S
MT COMFORT *+  CLOUDY    55  48  76 SW12      29.96R
SHELBYVILLE    PTCLDY    56  48  74 W8        29.95S
ZIONSVILLE +   CLOUDY    54  49  82 SW9       29.95S

$$

INZ033-034-041-042-049-050-058-059-270400-
EAST CENTRAL INDIANA

CITY           SKY/WX    TMP DP  RH WIND       PRES   REMARKS
MUNCIE         CLOUDY    57  49  74 W8        29.94R
RICHMOND +     CLEAR     52  50  93 W9        29.96S

$$

INZ060-061-067>069-081>083-085>088-270400-
SOUTHWEST INDIANA

CITY           SKY/WX    TMP DP  RH WIND       PRES   REMARKS
EVANSVILLE     PTCLDY    55  47  74 CALM      30.00R
HUNTINGBURG *+ CLOUDY    51  47  86 CALM      30.00R
WASHINGTON +   CLOUDY    53  47  82 MISG      29.99R

$$

INZ062-063-066-070>080-084-089>092-270400-
SOUTH CENTRAL AND SOUTHEAST INDIANA

CITY           SKY/WX    TMP DP  RH WIND       PRES   REMARKS
BEDFORD +      PTCLDY    55  46  71 SW3       29.98R
BLOOMINGTON    CLOUDY    57  47  69 W6        29.97R
MADISON *+     CLEAR     55  50  82 SW3       30.01S
NORTH VERNON + CLEAR    N/A N/A N/A W5        29.98R
SEYMOUR +      CLEAR     54  48  82 SW6       29.99R

$$





USA.gov is the U.S. government's official web portal to all federal, state and local government web resources and services.